Вернуться в каталог

STARLINK-34299

АктивенСвязьVLEO
NORAD 64383·PAYLOAD·🇺🇸 United States

Запущен Jun 13, 2025 с Cape Canaveral Space Force Station

Loading…

Ближайшие Пролёты (ближайшие 24 часа)

TLE

СвежийSource: CelesTrak SupGP

Эпоха: Sep 15, 2026, 04:00 UTC

1 64383C 25127P   26258.16715278  .00002383  00000+0  86330-4 0  2588
2 64383  43.0015 190.1022 0001255 272.4027 343.2044 15.27572627    16

Отслеживайте STARLINK-34299 в реальном времени с AllMySat

Download on the App Store